Location: Allie Creek
(37.5926°N, 89.8526°W)
Time: 23:26:03
(UTC+00:00)

SL-16 R/B - Pass Details

Date: 30 April 2024
Orbit: 841 x 845 km, 71.0° (Epoch: 28 May)

Event Time Altitude Azimuth Distance (km) Brightness Sun altitude
Exits shadow 01:40:22 10° 143° (SE) 2,459 4.1 -10.3°
Reaches altitude 10° 01:40:24 10° 143° (SE) 2,454 4.1 -10.3°
Maximum altitude 01:44:12 19° 100° (E) 1,911 3.5 -10.9°
Drops below altitude 10° 01:48:01 10° 57° (ENE) 2,467 4.4 -11.6°
Sets 01:51:09 0° 40° (NE) 3,407 5.2 -12.1°
